Weather observations for the past three days for
Atlanta, Hartsfield - Jackson Atlanta International Airport
Metric (Imperial)
Date Time (edt) Wind (kph) Vis. (km) Weather Sky Cond. Temperature (ºC) Relative Humidity Wind Chill (°C) Heat Index (°C) Pressure Precipitation (cm)
Air Dwpt 6 hour altimeter (cm) sea level (mb) 1 hr 3 hr 6 hr
Max. Min.
21 12:52 E 9 16.09 Mostly Cloudy SCT046 BKN060 27.8 16.1 49% 28 76.33 1016.5
21 11:52 E 11 16.09 Partly Cloudy FEW043 SCT050 SCT200 27.2 15.6 49% 28 76.35 1016.9
21 10:52 SE 11 16.09 A Few Clouds FEW038 FEW200 26.7 15.6 51% 27 76.35 1016.7
21 09:52 E 13 16.09 Fair CLR 25 15 54% 26 76.33 1016.5
21 08:52 E 9 16.09 A Few Clouds FEW065 23.3 15.6 62% 76.3 1016.2
21 07:52 SE 6 16.09 Partly Cloudy SCT060 21.7 16.1 21.7 19.4 71% 76.3 1016.3
21 06:52 Calm 16.09 Partly Cloudy FEW013 SCT060 20 16.1 78% 76.25 1015.8
21 05:52 Calm 16.09 Partly Cloudy SCT065 20 15.6 76% 76.23 1015.2
21 04:52 Calm 16.09 A Few Clouds FEW065 20.6 15.6 73% 76.17 1014.6
21 03:52 Calm 16.09 Partly Cloudy SCT075 21.1 15.6 71% 76.2 1014.8
21 02:52 S 6 16.09 Mostly Cloudy FEW060 BKN075 21.1 15.6 71% 76.2 1014.8
21 01:52 SE 7 16.09 A Few Clouds FEW065 21.7 15.6 27.8 21.7 68% 76.2 1015.0
21 00:52 S 6 16.09 A Few Clouds FEW065 22.8 16.1 66% 76.2 1014.9
20 23:52 Calm 16.09 Partly Cloudy SCT070 SCT250 23.3 16.1 64% 76.23 1015.2
20 22:52 Calm 16.09 Mostly Cloudy BKN070 BKN250 24.4 15.6 58% 26 76.23 1015.4
20 21:52 S 7 16.09 Partly Cloudy FEW060 SCT250 25 15 54% 26 76.17 1014.6
20 20:52 S 6 16.09 Mostly Cloudy FEW060 BKN250 26.1 14.4 49% 27 76.12 1014.0
20 19:52 SE 7 16.09 Mostly Cloudy FEW060 BKN250 27.2 13.9 29.4 26.7 44% 27 76.12 1013.8
20 18:52 SE 9 16.09 Partly Cloudy FEW060 SCT250 28.3 12.8 38% 28 76.1 1013.8
20 17:52 E 7 16.09 Partly Cloudy SCT060 SCT250 28.9 12.8 37% 28 76.12 1014.0
20 16:52 SE 11 16.09 Partly Cloudy FEW055 SCT250 28.9 13.9 40% 28 76.15 1014.3
20 14:52 E 11 16.09 A Few Clouds FEW045 FEW250 27.8 14.4 44% 28 76.23 1015.4
20 13:52 E 11 16.09 A Few Clouds FEW042 FEW250 26.7 14.4 27.2 18.9 47% 27 76.28 1016.0
20 12:52 NE 11 16.09 A Few Clouds FEW038 FEW250 26.1 15 50% 27 76.33 1016.6
20 11:52 SE 15 16.09 A Few Clouds FEW035 FEW250 24.4 15 56% 26 76.35 1017.1
20 10:52 E 17 16.09 A Few Clouds FEW028 FEW250 23.9 15 58% 25 76.33 1016.7
20 09:52 E 19 16.09 A Few Clouds FEW020 FEW250 22.2 14.4 61% 76.33 1016.7
20 08:52 E 15 16.09 A Few Clouds FEW015 20.6 15.6 73% 76.3 1016.6
20 07:52 E 19 16.09 Fair CLR 18.9 16.1 19.4 17.8 84% 76.28 1015.9
20 06:52 NE 11 16.09 Fair CLR 18.3 15.6 84% 76.25 1015.6
20 05:52 NE 9 16.09 A Few Clouds FEW085 18.3 15.6 84% 76.23 1015.5
20 04:52 E 7 16.09 A Few Clouds FEW085 18.3 15.6 84% 76.25 1015.5
20 03:52 E 7 16.09 A Few Clouds FEW085 18.3 15.6 84% 76.2 1015.2
20 02:52 E 11 16.09 A Few Clouds FEW085 18.9 16.1 84% 76.2 1015.0
20 01:52 E 11 16.09 Partly Cloudy SCT085 SCT110 19.4 16.1 26.1 19.4 81% 76.2 1015.1
20 00:52 E 13 16.09 Partly Cloudy FEW110 SCT200 20.6 17.2 81% 76.2 1015.0
19 23:52 SE 7 16.09 A Few Clouds FEW110 FEW200 21.1 17.2 79% 76.2 1015.1
19 22:52 SE 9 16.09 Partly Cloudy SCT110 SCT200 22.2 17.2 73% 76.17 1015.0
19 21:52 SE 11 16.09 Partly Cloudy FEW044 FEW075 SCT120 SCT200 23.3 17.8 71% 76.15 1014.3
19 20:52 SE 7 16.09 Partly Cloudy FEW038 FEW075 FEW110 SCT200 23.9 18.3 71% 25 76.1 1013.6
19 19:52 E 11 16.09 Partly Cloudy FEW044TCU SCT075 SCT110 SCT200 26.1 16.1 28.3 25 54% 27 76.07 1013.2
19 18:52 NE 11 16.09 Mostly Cloudy SCT042TCU SCT075 BKN110 BKN200 26.7 16.7 54% 27 76.02 1012.7
19 16:52 N 17 16.09 Mostly Cloudy SCT042 SCT055 BKN100 BKN200 28.3 17.2 51% 29 76.02 1012.4
19 15:52 NE 11 16.09 Mostly Cloudy SCT038TCU SCT048 BKN100 BKN200 26.7 16.1 52% 27 76.05 1012.9
19 14:52 E 20 G 31 16.09 Mostly Cloudy SCT032TCU BKN044 BKN200 26.1 16.7 56% 27 76.05 1013.1
19 13:52 NE 15 G 30 16.09 Mostly Cloudy BKN026 BKN075 BKN200 25 17.8 25 18.9 64% 26 76.12 1013.9
19 12:52 NE 13 16.09 Mostly Cloudy BKN015 BKN027 BKN080 22.2 17.8 76% 76.15 1014.6
19 11:52 NE 20 3.22 Light Drizzle Fog/Mist BKN007 OVC011 20.6 18.3 87% 76.15 1014.7
19 10:52 N 17 12.87 Light Rain OVC009 21.1 17.8 82% 76.12 1014.2
19 09:52 N 11 12.87 Overcast OVC008 20.6 17.8 84% 76.07 1013.7
19 08:52 N 13 2.01 Fog/Mist OVC005 19.4 17.8 91% 76.07 1013.4
19 07:52 N 11 0.80 Fog/Mist OVC004 18.9 17.2 18.9 18.3 90% 76.02 1012.7
19 06:52 N 15 0.80 Fog/Mist OVC003 18.3 17.2 93% 75.97 1012.0
19 05:52 NW 13 9.66 Fog/Mist OVC004 18.3 17.2 93% 75.92 1011.3
19 04:52 NW 13 9.66 Fog/Mist BKN004 BKN060 BKN120 18.3 17.2 93% 75.9 1011.0
19 03:52 NW 9 16.09 Mostly Cloudy FEW004 BKN055 BKN090 BKN130 18.3 17.2 93% 75.87 1010.9
19 02:52 NW 7 16.09 Mostly Cloudy FEW004 SCT090 BKN150 18.9 17.2 90% 75.9 1011.0
19 01:52 NW 9 16.09 Mostly Cloudy BKN004 BKN110 BKN220 18.9 17.2 22.8 18.9 90% 75.92 1011.5 0.15
19 00:52 N 9 16.09 Partly Cloudy FEW004 FEW010 SCT110 SCT220 19.4 17.8 91% 75.92 1011.3
18 23:52 Calm 16.09 Mostly Cloudy FEW006 BKN130 BKN220 BKN250 19.4 18.3 93% 75.95 1011.7
18 22:52 SW 6 16.09 Mostly Cloudy FEW030 SCT110 BKN220 BKN250 19.4 17.8 91% 75.9 1011.3 0.15
18 21:52 SW 9 16.09 Mostly Cloudy FEW030 BKN100 BKN200 BKN250 19.4 17.8 91% 75.87 1010.9 0.1
18 20:52 NW 19 11.27 Thunderstorm Light Rain SCT028CB BKN080 BKN120 OVC160 20.6 18.3 87% 75.9 1011.2 0.05
18 19:52 SW 13 16.09 Mostly Cloudy SCT025 SCT080CB BKN150 BKN200 22.8 19.4 25 22.8 81% 75.82 1010.2 0.03
18 18:52 SW 13 16.09 Mostly Cloudy SCT017 BKN110 BKN200 23.3 19.4 79% 75.82 1009.9
18 17:52 S 11 12.87 Light Rain SCT016 BKN026 BKN048 BKN130 OVC200 23.3 20 82% 75.84 1010.6 0.03
18 16:52 S 20 G 30 16.09 Overcast BKN017 BKN036 OVC120 23.3 18.9 76% 75.9 1011.0
18 15:52 S 24 G 33 16.09 Overcast BKN020CB BKN036 OVC200 23.9 19.4 76% 24 75.92 1011.4
18 14:52 S 13 16.09 Overcast BKN021TCU BKN038 BKN110 OVC200 24.4 19.4 74% 25 75.92 1011.5
18 13:52 Vrbl 6 16.09 Overcast BKN015TCU BKN100 OVC200 24.4 20.6 25 20 79% 25 76 1012.5
Date Time (edt) Wind (kph) Vis. (km) Weather Sky Cond. Air Dwpt Max. Min. Relative Humidity Wind Chill (°C) Heat Index (°C) altimeter (cm) sea level (mb) 1 hr 3 hr 6 hr
6 hour
Temperature (ºC) Pressure Precipitation (cm)